TimeEDT,TemperatureF,Dew PointF,Humidity,Sea Level PressureIn,VisibilityMPH,Wind Direction,Wind SpeedMPH,Gust SpeedMPH,PrecipitationIn,Events,Conditions,WindDirDegrees,DateUTC
12:53 AM,72.0,64.9,78,30.14,10.0,Calm,Calm,-,N/A,,Clear,0,2013-05-10 04:53:00
1:53 AM,71.1,64.0,78,30.12,10.0,Calm,Calm,-,N/A,,Clear,0,2013-05-10 05:53:00
2:53 AM,71.1,64.0,78,30.09,10.0,Calm,Calm,-,N/A,,Clear,0,2013-05-10 06:53:00
3:53 AM,69.1,64.0,84,30.08,10.0,Calm,Calm,-,N/A,,Clear,0,2013-05-10 07:53:00
4:53 AM,68.0,64.0,87,30.07,10.0,Calm,Calm,-,N/A,,Clear,0,2013-05-10 08:53:00
5:53 AM,66.9,64.0,90,30.05,9.0,Calm,Calm,-,N/A,,Clear,0,2013-05-10 09:53:00
6:53 AM,66.9,64.0,90,30.08,7.0,Calm,Calm,-,N/A,,Clear,0,2013-05-10 10:53:00
8:53 AM,75.0,63.0,66,30.09,10.0,SE,4.6,-,N/A,,Clear,140,2013-05-10 12:53:00
9:53 AM,80.1,69.1,69,30.10,10.0,SE,5.8,-,N/A,,Clear,140,2013-05-10 13:53:00
10:53 AM,84.0,68.0,58,30.09,10.0,SSE,10.4,-,N/A,,Partly Cloudy,160,2013-05-10 14:53:00
11:53 AM,87.1,66.9,51,30.08,10.0,Variable,5.8,-,N/A,,Partly Cloudy,0,2013-05-10 15:53:00
12:53 PM,88.0,66.0,48,30.07,10.0,South,8.1,-,N/A,,Mostly Cloudy,180,2013-05-10 16:53:00
1:53 PM,89.1,69.1,52,30.07,10.0,WSW,9.2,-,N/A,,Clear,240,2013-05-10 17:53:00
2:53 PM,89.1,66.9,48,30.06,10.0,SW,8.1,17.3,N/A,,Clear,220,2013-05-10 18:53:00
3:53 PM,89.1,66.9,48,30.04,10.0,WSW,12.7,-,N/A,,Clear,240,2013-05-10 19:53:00
4:53 PM,88.0,68.0,51,30.01,10.0,West,9.2,-,N/A,,Clear,260,2013-05-10 20:53:00
5:53 PM,86.0,69.1,57,30.01,10.0,West,12.7,-,N/A,,Clear,260,2013-05-10 21:53:00
6:53 PM,84.9,69.1,59,30.04,10.0,West,9.2,-,N/A,,Clear,260,2013-05-10 22:53:00
7:53 PM,82.0,68.0,62,30.05,10.0,SW,6.9,-,N/A,,Clear,230,2013-05-10 23:53:00
8:53 PM,80.1,70.0,71,30.04,10.0,South,4.6,-,N/A,,Clear,180,2013-05-11 00:53:00
9:53 PM,78.1,72.0,81,30.05,10.0,Calm,Calm,-,N/A,,Clear,0,2013-05-11 01:53:00
10:53 PM,77.0,72.0,84,30.06,10.0,Calm,Calm,-,N/A,,Clear,0,2013-05-11 02:53:00
11:53 PM,73.9,70.0,87,30.06,10.0,ESE,4.6,-,N/A,,Clear,120,2013-05-11 03:53:00